Location: Moscow
(55.7500°N, 37.5830°E)
Time: 18:20:56
(UTC+03:00)

ISS - Pass Details

Date: 23 March 2026
Orbit: 416 x 425 km, 51.6° (Epoch: 19 April)

Event Time Altitude Azimuth Distance (km) Brightness Sun altitude
Rises 20:23:15 0° 273° (W) 2,389 1.5 -13.6°
Reaches altitude 10° 20:25:35 10° 259° (W) 1,520 -0.1 -13.9°
Maximum altitude 20:28:26 25° 203° (SSW) 905 -2.1 -14.3°
Enters shadow 20:29:55 18° 164° (SSE) 1,102 -2.0 -14.5°
